Location: Newark
(52.2372°N, 141.5117°E)
Time: 23:25:48
(UTC+00:00)

N. Korean satellite - Visible Passes

Search period start: 22 September 2019 00:00
Search period end: 02 October 2019 00:00
Orbit: 455 x 509 km, 97.2° (Epoch: 22 September)

Date Brightness Start Highest point End Pass type
(mag) Time Alt. Az. Time Alt. Az. Time Alt. Az.
23 Sep 10.2 19:26:41 10° ENE 19:27:59 12° E 19:29:17 10° ESE visible
26 Sep 9.8 19:43:25 10° NE 19:45:51 18° E 19:48:17 10° SE visible
30 Sep 9.9 19:36:06 10° NE 19:38:13 15° E 19:40:20 10° SE visible
